Skip Page Navigation
NASA JPL Caltech
NASA Logo - Jet Propulsion Laboratory + View the NASA Portal
+ Center for Near-Earth Object Studies
JPL Home Earth Solar System Stars & Galaxies Technology
JPL Solar System Dynamics
BODIES ORBITS EPHEMERIDES TOOLS PHYSICAL DATA DISCOVERY FAQ SITE MAP
IMPORTANT: The SSD Announcement email list is now available. Major changes are coming in the near future, including possible hostname and/or URL changes. To be notified of such changes, subscribe to this email list.

Please visit this page for more details.


JPL Small-Body Database Browser
Search: [ help ]  
37048 (2000 UZ36)
Classification: Main-belt Asteroid          SPK-ID: 2037048
Ephemeris | Orbit Diagram | Orbital Elements | Mission Design | Physical Parameters | Discovery Circumstances | Close-Approach Data ]

[ show orbit diagram ]
Orbital Elements at Epoch 2459000.5 (2020-May-31.0) TDB
Reference: JPL 23 (heliocentric ecliptic J2000)
 Element Value Uncertainty (1-sigma)   Units 
e .06336056748565334 4.3663e-08  
a 2.861626064646635 1.8255e-08 au
q 2.680311813258887 1.237e-07 au
i 2.495911206317952 5.0254e-06 deg
node 159.1004354999914 8.7674e-05 deg
peri 163.4711009673578 9.4606e-05 deg
M 90.11215940015495 3.4635e-05 deg
tp 2458557.913006058444
(2019-Mar-15.41300606)
0.00017091 TDB
period 1768.144486599509
4.84
1.6919e-05
4.632e-08
d
yr
n .2036032703935588 1.9483e-09 deg/d
Q 3.042940316034383 1.9412e-08 au
  Orbit Determination Parameters
   # obs. used (total)      841  
   data-arc span      9790 days (26.80 yr)  
   first obs. used      1993-03-19  
   last obs. used      2020-01-07  
   planetary ephem.      DE431  
   SB-pert. ephem.      SB431-N16  
   condition code      0  
   norm. resid. RMS      .62626  
   source      ORB  
   producer      Otto Matic  
   solution date      2020-Feb-23 04:23:51  

Additional Information
 Earth MOID = 1.66786 au 
 Jupiter MOID = 2.15623 au 
 T_jup = 3.297 
[ hide covariance matrix ]
Orbital Elements at Epoch 2456945.5 (2014-Oct-15.0) TDB
Reference: JPL 23 (heliocentric ecliptic J2000)
 Element Value Uncertainty (1-sigma)   Units 
e .0661189993523244 4.3898e-08  
q 2.671917656504426 1.2482e-07 au
tp 2456786.690563238763
(2014-May-09.19056324)
0.00016734 TDB
node 159.160304151756 8.7573e-05 deg
peri 162.8216041523704 9.3935e-05 deg
i 2.496667331689819 5.0322e-06 deg
  Orbit Determination Parameters
   # obs. used (total)      841  
   data-arc span      9790 days (26.80 yr)  
   first obs. used      1993-03-19  
   last obs. used      2020-01-07  
   planetary ephem.      DE431  
   SB-pert. ephem.      SB431-N16  
   condition code      0  
   norm. resid. RMS      .62626  
   source      ORB  
   producer      Otto Matic  
   solution date      2020-Feb-23 04:23:51  

Additional Information
 Jupiter MOID = 2.15623 au 
 T_jup = 3.297 
Orbit Covariance (6×6)
  e q tp node peri i
e 1.926993784228169E-15 -5.428659967001892E-15 2.291666070224302E-12 1.459807007160426E-14 4.206871303260493E-13 -1.767067350826434E-16
q -5.428659967001892E-15 1.557924269273337E-14 -7.395524997873852E-12 -4.146920955110621E-14 -1.372463909875822E-12 7.777515491541371E-16
tp 2.291666070224302E-12 -7.395524997873852E-12 2.800187436785788E-8 3.767065566354526E-11 5.698451317274494E-9 -1.659218784566374E-12
node 1.459807007160426E-14 -4.146920955110621E-14 3.767065566354526E-11 7.668976265944478E-9 -7.653856320408982E-9 1.002723007737414E-10
peri 4.206871303260493E-13 -1.372463909875822E-12 5.698451317274494E-9 -7.653856320408982E-9 8.823716927715526E-9 -1.00522589408039E-10
i -1.767067350826434E-16 7.777515491541371E-16 -1.659218784566374E-12 1.002723007737414E-10 -1.00522589408039E-10 2.532292017145036E-11

Ephemeris | Orbit Diagram | Orbital Elements | Mission Design | Physical Parameters | Discovery Circumstances | Close-Approach Data ]

Physical Parameter Table
Parameter Symbol Value Units Sigma Reference Notes
absolute magnitude H 15.0   n/a MPO502422  

37048 (2000 UZ36)          Discovered 2000-Oct-24 by LINEAR at Socorro
Reference: 20020227/Numbers.arcLast Updated: 2004-04-19

[ show close-approach data ]
Ephemeris | Orbit Diagram | Orbital Elements | Mission Design | Physical Parameters | Discovery Circumstances | Close-Approach Data ]
ABOUT SSD CREDITS/AWARDS PRIVACY/COPYRIGHT GLOSSARY LINKS
FirstGov 2020-Jun-03 11:12 UT
(server date/time)  
NASA Home Page
Site Manager:   Ryan S. Park
Webmaster  Alan B. Chamberlin